Change the Weather History Date:

Sunday, October 28, 2012

  Actual Average (KVPZ) Record (KVPZ)
Temperature  
Mean Temperature 41 °F 49 °F  
Max Temperature 50 °F 58 °F 80 °F (1999)
Min Temperature 32 °F 39 °F 27 °F (2013)
Degree Days  
Heating Degree Days 24 16  
Month to date heating degree days 350  
Since 1 July heating degree days 480  
Cooling Degree Days 0 0  
Month to date cooling degree days 11  
Year to date cooling degree days 713  
Moisture  
Dew Point 31 °F    
Average Humidity 70    
Maximum Humidity 100    
Minimum Humidity 37    
Precipitation  
Precipitation 0.00 in 0.10 in 0.15 in (2014)
Month to date precipitation 2.99  
Year to date precipitation 31.74  
Sea Level Pressure  
Sea Level Pressure 30.21 in    
Wind  
Wind Speed 7 mph (North)    
Max Wind Speed 15 mph    
Max Gust Speed 23 mph    
Visibility 10 miles    
Events      
T = Trace of Precipitation, MM = Missing Value Source: NWS Daily Summary

Daily Weather History Graph

Daily Weather History Graph

Search for Another Location

Airport or City:

Trip Planner

Search our weather history database for the weather conditions in past years. The results will help you decide how hot, cold, wet, or windy it might be!

Date:

Astronomy

Oct. 28, 2012 Rise Set
Actual Time 7:15 AM CDT 5:48 PM CDT
Civil Twilight 6:47 AM CDT 6:17 PM CDT
Nautical Twilight 6:14 AM CDT 6:49 PM CDT
Astronomical Twilight 5:42 AM CDT 7:21 PM CDT
Moon 5:06 PM CDT (10/28) 6:07 AM CDT (10/28)
Length of Visible Light 11h 30m
Length of Day
10h 33m
Waxing Gibbous, 99% of the Moon is Illuminated
Oct 28
Waxing Gibbous
Oct 29
Full
Nov 6
Last Quarter
Nov 13
New
Nov 20
First Quarter

Hourly Weather History & Observations

Time (CDT) Temp. Windchill Dew Point Humidity Pressure Visibility Wind Dir Wind Speed Gust Speed Precip Events Conditions
12:15 AM 33.8 °F 28.6 °F 32.0 °F 93% 30.22 in 10.0 mi NNW 5.8 mph - N/A   Clear
12:35 AM 32.0 °F 25.6 °F 32.0 °F 100% 30.21 in 10.0 mi NNW 6.9 mph - N/A   Clear
12:55 AM 33.8 °F 29.6 °F 32.0 °F 93% 30.21 in 10.0 mi NW 4.6 mph - N/A   Clear
1:15 AM 33.8 °F 28.6 °F 32.0 °F 93% 30.21 in 10.0 mi NNW 5.8 mph - N/A   Clear
1:35 AM 35.6 °F 29.2 °F 32.0 °F 87% 30.20 in 10.0 mi North 8.1 mph - N/A   Clear
1:55 AM 35.6 °F 29.9 °F 32.0 °F 87% 30.21 in 10.0 mi North 6.9 mph - N/A   Clear
2:15 AM 35.6 °F 29.9 °F 33.8 °F 93% 30.21 in 10.0 mi North 6.9 mph - N/A   Clear
2:35 AM 35.6 °F 30.7 °F 33.8 °F 93% 30.21 in 10.0 mi North 5.8 mph - N/A   Clear
2:55 AM 35.6 °F 30.7 °F 32.0 °F 87% 30.21 in 10.0 mi NNE 5.8 mph - N/A   Clear
3:15 AM 35.6 °F 31.7 °F 32.0 °F 87% 30.21 in 10.0 mi NNE 4.6 mph - N/A   Clear
3:35 AM 33.8 °F 29.6 °F 32.0 °F 93% 30.21 in 10.0 mi NNE 4.6 mph - N/A   Clear
3:55 AM 33.8 °F 29.6 °F 32.0 °F 93% 30.21 in 10.0 mi North 4.6 mph - N/A   Clear
4:15 AM 35.6 °F 29.9 °F 32.0 °F 87% 30.21 in 10.0 mi NNE 6.9 mph - N/A   Scattered Clouds
4:35 AM 35.6 °F 29.9 °F 32.0 °F 87% 30.22 in 10.0 mi NNE 6.9 mph - N/A   Mostly Cloudy
4:55 AM 35.6 °F 30.7 °F 32.0 °F 87% 30.22 in 10.0 mi NNE 5.8 mph - N/A   Scattered Clouds
5:15 AM 35.6 °F 31.7 °F 33.8 °F 93% 30.22 in 10.0 mi NNE 4.6 mph - N/A   Mostly Cloudy
5:35 AM 35.6 °F 30.7 °F 33.8 °F 93% 30.23 in 10.0 mi NNE 5.8 mph - N/A   Overcast
5:55 AM 35.6 °F 30.7 °F 33.8 °F 93% 30.23 in 10.0 mi North 5.8 mph - N/A   Overcast
6:15 AM 35.6 °F 30.7 °F 32.0 °F 87% 30.23 in 10.0 mi North 5.8 mph - N/A   Scattered Clouds
6:35 AM 35.6 °F 30.7 °F 32.0 °F 87% 30.22 in 10.0 mi North 5.8 mph - N/A   Scattered Clouds
6:55 AM 35.6 °F 29.2 °F 33.8 °F 93% 30.23 in 10.0 mi North 8.1 mph - N/A   Mostly Cloudy
7:15 AM 35.6 °F 29.9 °F 33.8 °F 93% 30.23 in 10.0 mi North 6.9 mph - N/A   Mostly Cloudy
7:35 AM 35.6 °F 29.9 °F 33.8 °F 93% 30.23 in 10.0 mi North 6.9 mph - N/A   Scattered Clouds
7:55 AM 35.6 °F 29.9 °F 33.8 °F 93% 30.24 in 10.0 mi NNE 6.9 mph - N/A   Scattered Clouds
8:15 AM 35.6 °F 29.9 °F 33.8 °F 93% 30.24 in 10.0 mi North 6.9 mph - N/A   Clear
8:35 AM 35.6 °F 30.7 °F 33.8 °F 93% 30.24 in 10.0 mi North 5.8 mph - N/A   Clear
8:55 AM 35.6 °F 29.2 °F 33.8 °F 93% 30.24 in 10.0 mi North 8.1 mph - N/A   Clear
9:15 AM 37.4 °F 30.3 °F 32.0 °F 81% 30.25 in 10.0 mi North 10.4 mph 17.3 mph N/A   Clear
9:55 AM 41.0 °F 34.3 °F 32.0 °F 70% 30.24 in 10.0 mi NNE 11.5 mph - N/A   Clear
10:15 AM 42.8 °F 36.6 °F 32.0 °F 66% 30.24 in 10.0 mi NNE 11.5 mph - N/A   Clear
10:35 AM 44.6 °F 38.8 °F 30.2 °F 57% 30.24 in 10.0 mi NNE 11.5 mph 16.1 mph N/A   Clear
10:55 AM 44.6 °F 38.8 °F 28.4 °F 53% 30.24 in 10.0 mi NNE 11.5 mph 17.3 mph N/A   Clear
11:15 AM 44.6 °F 38.4 °F 28.4 °F 53% 30.24 in 10.0 mi NNE 12.7 mph 16.1 mph N/A   Scattered Clouds
11:35 AM 46.4 °F 40.1 °F 28.4 °F 50% 30.24 in 10.0 mi North 15.0 mph 23.0 mph N/A   Mostly Cloudy
11:55 AM 44.6 °F 38.1 °F 28.4 °F 53% 30.24 in 10.0 mi NNE 13.8 mph 20.7 mph N/A   Mostly Cloudy
12:15 PM 46.4 °F 40.1 °F 28.4 °F 50% 30.23 in 10.0 mi NNE 15.0 mph 21.9 mph N/A   Scattered Clouds
12:35 PM 48.2 °F - 28.4 °F 46% 30.21 in 10.0 mi NE 12.7 mph 23.0 mph N/A   Scattered Clouds
12:55 PM 48.2 °F - 28.4 °F 46% 30.21 in 10.0 mi NNW 10.4 mph 16.1 mph N/A   Mostly Cloudy
1:15 PM 46.4 °F 41.1 °F 26.6 °F 46% 30.20 in 10.0 mi North 11.5 mph 19.6 mph N/A   Mostly Cloudy
1:35 PM 48.2 °F - 26.6 °F 43% 30.20 in 10.0 mi North 12.7 mph 20.7 mph N/A   Scattered Clouds
1:55 PM 50.0 °F - 26.6 °F 40% 30.19 in 10.0 mi North 9.2 mph 21.9 mph N/A   Scattered Clouds
2:15 PM 50.0 °F - 26.6 °F 40% 30.18 in 10.0 mi NNW 9.2 mph 17.3 mph N/A   Clear
2:35 PM 48.2 °F - 24.8 °F 40% 30.18 in 10.0 mi North 8.1 mph 18.4 mph N/A   Clear
2:55 PM 48.2 °F - 24.8 °F 40% 30.18 in 10.0 mi North 10.4 mph 19.6 mph N/A   Clear
3:15 PM 50.0 °F - 24.8 °F 37% 30.18 in 10.0 mi North 10.4 mph 20.7 mph N/A   Clear
3:35 PM 50.0 °F - 26.6 °F 40% 30.18 in 10.0 mi North 9.2 mph 16.1 mph N/A   Clear
3:55 PM 48.2 °F - 26.6 °F 43% 30.18 in 10.0 mi North 11.5 mph - N/A   Scattered Clouds
4:15 PM 46.4 °F 40.7 °F 28.4 °F 50% 30.19 in 10.0 mi North 12.7 mph - N/A   Mostly Cloudy
4:55 PM 46.4 °F 40.4 °F 30.2 °F 53% 30.19 in 10.0 mi North 13.8 mph 20.7 mph N/A   Mostly Cloudy
5:15 PM 44.6 °F 38.8 °F 30.2 °F 57% 30.20 in 10.0 mi North 11.5 mph 17.3 mph N/A   Mostly Cloudy
5:35 PM 44.6 °F 40.2 °F 30.2 °F 57% 30.20 in 10.0 mi North 8.1 mph - N/A   Overcast
5:55 PM 44.6 °F 38.8 °F 30.2 °F 57% 30.20 in 10.0 mi North 11.5 mph - N/A   Overcast
6:15 PM 44.6 °F 40.2 °F 32.0 °F 61% 30.21 in 10.0 mi North 8.1 mph - N/A   Overcast
6:35 PM 44.6 °F 41.4 °F 32.0 °F 61% 30.21 in 10.0 mi North 5.8 mph - N/A   Overcast
6:55 PM 42.8 °F 38.6 °F 32.0 °F 66% 30.21 in 10.0 mi North 6.9 mph - N/A   Overcast
7:15 PM 42.8 °F 41.1 °F 32.0 °F 66% 30.21 in 10.0 mi NNW 3.5 mph - N/A   Overcast
7:35 PM 42.8 °F 40.1 °F 32.0 °F 66% 30.21 in 10.0 mi NNW 4.6 mph - N/A   Overcast
7:55 PM 42.8 °F 40.1 °F 32.0 °F 66% 30.20 in 10.0 mi NNW 4.6 mph - N/A   Overcast
8:15 PM 42.8 °F 40.1 °F 32.0 °F 66% 30.20 in 10.0 mi NNW 4.6 mph - N/A   Overcast
8:35 PM 42.8 °F 41.1 °F 32.0 °F 66% 30.20 in 10.0 mi NNW 3.5 mph - N/A   Overcast
8:55 PM 42.8 °F 41.1 °F 32.0 °F 66% 30.20 in 10.0 mi North 3.5 mph - N/A   Overcast
9:15 PM 42.8 °F 40.1 °F 32.0 °F 66% 30.20 in 10.0 mi NNW 4.6 mph - N/A   Overcast
9:35 PM 42.8 °F 41.1 °F 32.0 °F 66% 30.19 in 10.0 mi North 3.5 mph - N/A   Overcast
9:55 PM 42.8 °F 40.1 °F 32.0 °F 66% 30.20 in 10.0 mi NNW 4.6 mph - N/A   Overcast
10:15 PM 42.8 °F 40.1 °F 32.0 °F 66% 30.20 in 10.0 mi North 4.6 mph - N/A   Overcast
10:35 PM 42.8 °F 39.3 °F 32.0 °F 66% 30.20 in 10.0 mi North 5.8 mph - N/A   Mostly Cloudy
10:55 PM 42.8 °F 39.3 °F 30.2 °F 61% 30.20 in 10.0 mi North 5.8 mph - N/A   Mostly Cloudy
11:15 PM 41.0 °F 37.1 °F 28.4 °F 61% 30.20 in 10.0 mi North 5.8 mph - N/A   Mostly Cloudy
11:35 PM 41.0 °F 38.0 °F 26.6 °F 57% 30.20 in 10.0 mi North 4.6 mph - N/A   Scattered Clouds
11:55 PM 39.2 °F 35.9 °F 26.6 °F 61% 30.21 in 10.0 mi North 4.6 mph - N/A   Scattered Clouds